Location: Poviglio
(44.3833°N, 10.2333°E)
Time: 04:03:22
(UTC+00:00)

Daily predictions for brighter satellites

Satellite Brightness Start Highest point End
(mag) Time Altitude Azimuth Time Altitude Azimuth Time Altitude Azimuth
Cosmos 1825 2.1 00:13:02 68° SE 00:13:16 71° E 00:17:02 10° NNE
Cosmos 540 Rocket 3.8 00:15:11 41° SSE 00:16:36 55° ESE 00:21:35 10° NNE
DELTA 2 R/B (1) 3.9 00:16:57 41° SSE 00:17:00 41° SSE 00:22:10 10° E
Cosmos 1408 2.9 00:19:18 50° W 00:19:24 51° W 00:23:01 10° N
Cosmos 990 Rocket 3.9 00:16:01 10° NNW 00:21:11 68° WSW 00:22:37 46° S
SL-16 R/B 3.6 00:19:56 17° WSW 00:23:28 31° NW 00:28:28 10° N
Cosmos 405 Rocket 2.5 00:23:36 69° WSW 00:23:48 72° W 00:27:29 10° N
Cosmos 841 Rocket 3.8 00:23:03 39° SSE 00:24:38 55° ESE 00:29:40 10° NNE
Cosmos 2058 2.9 00:24:22 57° SSE 00:25:04 73° E 00:29:10 10° NNE
Cosmos 1242 Rocket 3.7 00:21:42 10° N 00:25:05 37° ENE 00:26:09 29° ESE
USA 229 DEB 3.8 00:22:35 28° SW 00:26:10 68° NW 00:33:01 10° NE
USA 229 3.8 00:22:43 28° SW 00:26:16 68° NW 00:33:07 10° NE
Cosmos 1656 Rocket 3.7 00:21:12 10° NNW 00:26:56 79° ENE 00:30:16 26° SSE
Cosmos 2221 2.7 00:22:48 10° N 00:27:04 63° E 00:28:24 41° SE
X-37B 1.0 00:28:47 59° ENE 00:28:47 59° ENE 00:31:28 10° E
Nadezhda 4 Rocket 3.9 00:30:48 35° S 00:33:34 82° E 00:39:43 10° N
NOSS 2-2 (C) 4.3 00:34:05 27° ESE 00:34:05 27° ESE 00:37:02 10° ENE
Cosmos 1898 Rocket 3.5 00:29:18 10° NNW 00:34:29 66° WSW 00:36:11 41° S
Cosmos 1937 Rocket 3.5 00:29:27 10° NNW 00:34:49 90° WSW 00:37:19 33° SSE
NOSS 3-1 (C) 4.4 00:31:11 16° WSW 00:35:13 39° NW 00:41:12 10° NNE
YAOGAN 11 4.1 00:35:34 49° SSW 00:36:36 67° WSW 00:41:06 10° NNW
Cosmos 2369 Rocket 2.3 00:31:24 10° NNW 00:37:00 57° WSW 00:38:58 38° SSW
USA 307 3.4 00:38:07 41° SSE 00:38:26 42° SE 00:42:27 10° ENE
Aureole 3 Rocket 4.0 00:34:55 10° N 00:38:47 47° E 00:41:59 21° SE
CREW DRAGON DEMO-1 DEB 4.4 00:40:05 25° NNW 00:40:08 25° NNW 00:42:15 10° NE
SJ 16-02 3.3 00:37:39 10° WNW 00:40:01 16° W 00:40:01 16° W
ARGOS Delta rocket 4.3 00:38:47 10° NNE 00:44:17 67° E 00:46:49 32° S
NOSS 3-1 (A) 3.9 00:42:41 23° WSW 00:45:56 51° NW 00:52:09 10° NNE
ATLAS 5 CENTAUR R/B 1.9 00:48:04 37° SSE 00:48:47 41° ESE 00:52:48 10° NE
Cosmos 2263 4.2 00:45:05 10° NNW 00:50:41 60° WSW 00:53:06 33° S
CZ-4 R/B 4.1 00:47:19 10° N 00:51:53 55° WNW 00:53:33 36° SW
Helios 1B rocket 3.1 00:48:43 10° NNE 00:52:40 46° E 00:54:08 31° SSE
Cosmos 1814 Rocket 4.1 00:51:51 35° S 00:54:03 68° ESE 00:59:11 10° NNE
Cosmos 1633 2.8 00:53:22 44° SE 00:54:07 57° E 00:57:36 10° NNE
USA 308 3.0 00:53:26 46° S 00:54:18 56° SE 00:58:28 10° ENE
ADEOS Rocket 4.2 00:47:30 10° SE 00:54:24 48° ENE 01:00:42 10° N
Cosmos 1932 4.4 00:50:02 10° NW 00:56:09 63° WSW 01:00:03 23° SSE
UNK 3.9 00:54:26 25° SSE 00:57:06 69° ENE 01:01:43 10° N
CZ-3B R/B 4.5 00:50:00 10° WNW 00:57:36 29° N 01:00:37 10° ENE
Helios 1A 3.5 01:00:06 37° WSW 01:00:46 40° W 01:04:44 10° NNW
Cosmos 1606 2.6 00:59:16 10° N 01:03:07 81° W 01:04:13 45° S
Cosmos 1570 Rocket 4.0 01:01:44 34° SSW 01:04:06 82° ESE 01:09:21 10° NNE
SL-16 R/B 2.5 00:59:52 20° SSE 01:04:20 90° SW 01:10:34 10° NNW
Cosmos 1933 4.5 01:04:40 10° N 01:08:34 41° ENE 01:11:43 14° SE
Cosmos 372 Rocket 3.9 01:04:32 10° NNW 01:09:47 78° WSW 01:13:10 23° SSE
USA 290 2.1 01:11:15 58° S 01:11:48 81° ESE 01:15:02 10° NNE
USA 305 2.8 01:10:31 37° SW 01:12:07 83° SE 01:16:24 10° NE
CZ-4C R/B 4.1 01:11:43 10° SE 01:14:27 15° ESE 01:17:25 10° ENE
Cosmos 1092 Rocket 3.9 01:11:05 27° SSW 01:14:36 82° W 01:20:48 10° N
Lacrosse 4 Rocket 1.5 01:11:58 10° NNW 01:16:04 70° ENE 01:20:04 10° SE
Cosmos 2098 Rocket 3.9 01:15:08 28° SW 01:17:32 46° W 01:21:55 10° N
Cosmos 2208 Rocket 4.1 01:16:33 29° SSW 01:19:26 89° ESE 01:24:56 10° NNE
USA 267 4.4 01:19:19 21° SW 01:19:29 21° WSW 01:24:15 10° WNW
BREEZE-M R/B 2.5 01:18:12 34° SW 01:19:34 69° SSE 01:24:38 10° ENE
Meteor 2-19 Rocket 4.4 01:16:27 27° SSW 01:20:01 75° W 01:26:10 10° N
Resurs 1-4 Rocket 2.2 01:16:11 10° N 01:21:29 68° WNW 01:24:23 27° SSW
Cosmos 1437 Rocket 4.1 01:18:53 10° NW 01:21:57 23° W 01:22:18 22° W
Meteor 1-29 3.5 01:22:07 10° NNE 01:25:27 52° E 01:26:57 28° SSE
SL-4 R/B 3.9 01:23:32 10° NW 01:26:44 27° N 01:29:47 10° ENE
MINOTAUR 4 R/B 4.1 01:26:32 23° SSE 01:28:38 75° ENE 01:32:10 10° N
Cosmos 1428 Rocket 4.5 01:24:47 23° SSW 01:28:52 80° W 01:35:12 10° N
Landsat 4 4.1 01:27:34 10° NNE 01:31:19 58° E 01:33:22 24° S
NOSS 2-2 (D) 3.1 01:30:21 34° SW 01:31:40 68° NW 01:35:20 10° NNE
NPP 3.7 01:27:17 10° N 01:32:40 69° WNW 01:35:57 24° SSW
ADEOS II 2.2 01:27:53 10° NNE 01:33:10 73° ESE 01:36:49 20° S
Cosmos 921 Rocket 3.8 01:32:38 24° WSW 01:34:29 37° WNW 01:38:25 10° N
USA 306 3.0 01:32:05 24° WSW 01:34:33 71° NNW 01:38:48 10° NE
Meteor 2-3 Rocket 3.8 01:31:29 20° S 01:35:28 76° E 01:41:04 10° NNE
Lacrosse 5 rocket 3.9 01:33:09 10° NNW 01:35:57 21° NNE 01:38:46 10° ENE
Cosmos 1943 4.4 01:33:25 15° WSW 01:37:13 32° NW 01:42:15 10° N
FALCON 9 DEB 2.9 01:34:15 10° WNW 01:37:39 75° SW 01:41:02 10° SE
CZ-2D R/B 2.6 01:35:08 10° N 01:40:07 48° WNW 01:43:15 22° SW
Alouette 2 Rocket 4.4 01:38:04 10° N 01:41:31 44° ENE 01:45:33 10° SSE
ASTEX 1 4.4 01:39:53 10° SSE 01:44:35 46° ENE 01:49:17 10° N
Cosmos 2151 3.2 01:44:56 25° SW 01:47:07 52° WNW 01:51:14 10° N
IDEFIX/ARIANE 42P 3.2 01:42:25 10° NNE 01:47:34 53° E 01:52:17 12° S
AQUA 4.2 01:47:36 10° N 01:52:14 52° WNW 01:55:17 20° SW
Cosmos 1437 4.2 01:54:00 10° NW 01:55:51 17° W 01:55:51 17° W
Meteor 1-26 Rocket 4.3 01:50:35 10° NNW 01:56:27 82° W 02:02:26 10° S
DELTA 2 R/B (1) 3.7 01:57:41 10° WSW 02:03:00 53° S 02:08:23 10° ESE
X-37B 0.5 02:01:48 10° W 02:04:58 68° SSW 02:08:07 10° ESE
CBERS-1 4.0 02:01:42 10° NNE 02:06:52 90° ESE 02:11:27 13° SSW
BREEZE-M DEB (TANK) 2.7 02:04:53 10° WNW 02:07:05 41° NNE 02:09:41 10° E
IRS-1D 3.5 02:01:57 10° N 02:07:06 73° WNW 02:11:14 15° SSW
Cosmos 1812 3.4 02:07:09 10° N 02:10:56 55° E 02:14:41 10° SSE
Cosmos 1553 Rocket 4.1 02:05:03 10° NNW 02:11:16 63° W 02:17:20 10° S
Cosmos 2292 Rocket 3.3 02:09:52 21° SW 02:11:23 37° W 02:14:11 10° N
SL-08 R/B 4.5 02:07:51 10° SE 02:12:16 45° ENE 02:16:49 10° N
CZ-2C R/B 4.4 02:11:33 10° NE 02:15:32 24° E 02:19:23 10° SSE
FALCON 9 DEB 3.6 02:13:29 10° NW 02:16:36 57° NNE 02:19:40 10° ESE
USA 281 3.2 02:10:07 10° SSE 02:16:42 88° WSW 02:23:19 10° NNW
Meteor 2-14 Rocket 4.5 02:11:39 13° SSW 02:17:13 71° W 02:23:21 10° N
S3M 4.0 02:11:11 10° N 02:17:23 83° W 02:23:35 10° S
GPS 2-04 Rocket1 3.9 02:15:43 17° SW 02:17:24 22° S 02:20:27 10° SE
Cosmos 1782 3.0 02:13:54 10° NNW 02:17:49 55° W 02:21:41 10° S
USA 307 3.9 02:14:22 10° W 02:18:25 42° NNW 02:22:29 10° NE
Meteor 2-21 Rocket 4.5 02:12:41 10° S 02:18:49 87° W 02:25:04 10° N
Cosmos 1271 Rocket 2.6 02:16:03 10° NNW 02:19:47 81° W 02:23:33 10° S
MSX 4.0 02:14:11 10° NNE 02:19:59 75° ESE 02:25:43 10° S
CZ-4C R/B 2.9 02:20:51 10° S 02:24:17 65° WSW 02:27:45 10° NNW
ERBS 2.2 02:24:39 16° SW 02:27:10 80° NW 02:30:24 10° NE
Helios 1B rocket 4.4 02:24:53 10° NNW 02:27:32 17° WNW 02:30:11 10° WSW
Cosmos 1328 Rocket 3.6 02:27:32 10° NNW 02:31:50 60° W 02:36:09 10° S
NOSS 3-2 (A) 4.4 02:25:16 10° NW 02:32:49 77° NE 02:41:25 10° SE
FALCON 9 DEB 2.7 02:30:27 10° WNW 02:33:32 73° SW 02:36:35 10° SE
ATLAS 5 CENTAUR R/B 3.1 02:30:09 10° W 02:33:33 25° NW 02:37:19 10° NNE
USA 308 4.2 02:30:31 10° W 02:34:26 36° NNW 02:38:24 10° NE
Spot 1 4.5 02:29:58 10° S 02:35:01 65° WSW 02:39:54 10° NNW
SeaSat 1 2.5 02:31:13 10° NNE 02:36:11 89° WNW 02:41:07 10° SSW
ADEOS Rocket 4.0 02:33:23 10° SSW 02:39:57 35° W 02:46:03 10° NNW
FALCON 9 DEB 2.8 02:37:18 10° WNW 02:40:25 83° SW 02:43:31 10° SE
Meteor 2-6 Rocket 4.3 02:34:56 10° NNW 02:40:50 78° W 02:46:33 10° S
FALCON 9 DEB 2.8 02:40:44 10° WNW 02:43:48 62° SW 02:46:50 10° SE
ALOS 4.3 02:40:23 10° NE 02:44:20 26° E 02:48:14 10° SSE
Cosmos 1980 Rocket 4.5 02:41:08 10° N 02:46:01 30° NE 02:50:53 10° ESE
Cosmos 1833 Rocket 3.2 02:41:46 10° S 02:47:17 59° ESE 02:52:50 10° NNE
SL-16 R/B 4.2 02:45:30 10° WSW 02:48:45 15° W 02:52:01 10° NW
Cosmos 2228 Rocket 4.2 02:45:35 10° N 02:49:57 48° ENE 02:54:16 10° SSE
IRS-P3 4.3 02:46:25 10° N 02:51:42 65° WNW 02:56:57 10° SSW
Tianhe-1 2.8 02:49:49 10° SSW 02:52:17 21° SSE 02:54:46 10° ESE
Lacrosse 4 Rocket 3.3 02:52:56 10° W 02:54:06 11° WSW 02:55:14 10° WSW
Meteor 1-27 Rocket 4.2 02:48:32 10° N 02:54:06 65° ENE 02:59:34 10° SSE
Cosmos 1125 Rocket 4.4 02:49:46 10° NW 02:54:16 29° W 02:58:45 10° SSW
Cosmos 1151 Rocket 4.2 02:51:47 10° NNW 02:55:18 25° W 02:58:48 10° SW
Cosmos 2266 Rocket 4.2 02:50:14 10° SSW 02:56:11 54° WNW 03:02:08 10° N
CZ-4B R/B 3.7 02:54:14 10° N 02:59:30 71° WNW 03:04:39 10° SSW
Resurs 1-4 Rocket 4.3 02:59:03 10° NW 03:00:18 11° NW 03:01:34 10° WNW
ARIANE 5 R/B 2.6 02:55:41 10° N 03:00:38 65° WNW 03:05:35 10° SSW
CZ-4C R/B 2.1 02:57:02 10° SW 03:01:53 75° NW 03:07:47 10° NE
